Time,TemperatureF,DewpointF,PressureIn,WindDirection,WindDirectionDegrees,WindSpeedMPH,WindSpeedGustMPH,Humidity,HourlyPrecipIn,Conditions,Clouds,dailyrainin,SolarRadiationWatts/m^2,SoftwareType,DateUTC
2013-09-24 00:04:00,52.0,52.0,-100.00,North,354,1.0,2.0,99,0.00,,,0.00,0.000000,,2013-09-24 04:04:00,
2013-09-24 00:11:00,51.0,51.0,-100.00,WNW,298,0.0,2.0,100,0.00,,,0.00,0.000000,,2013-09-24 04:11:00,
2013-09-24 00:44:00,51.0,51.0,-100.00,WNW,298,0.0,2.0,100,0.00,,,0.00,0.000000,,2013-09-24 04:44:00,
2013-09-24 00:54:00,51.0,51.0,-100.00,WNW,298,0.0,2.0,100,0.00,,,0.00,0.000000,,2013-09-24 04:54:00,
2013-09-24 01:03:00,51.0,51.0,-100.00,WNW,298,0.0,2.0,100,0.00,,,0.00,0.000000,,2013-09-24 05:03:00,
2013-09-24 01:11:00,50.0,50.0,-100.00,North,9,1.0,2.0,100,0.00,,,0.00,0.000000,,2013-09-24 05:11:00,
2013-09-24 01:43:00,50.0,50.0,-100.00,North,9,1.0,2.0,100,0.00,,,0.00,0.000000,,2013-09-24 05:43:00,
2013-09-24 01:53:00,50.0,50.0,-100.00,North,9,1.0,2.0,100,0.00,,,0.00,0.000000,,2013-09-24 05:53:00,
2013-09-24 02:02:00,50.0,50.0,-100.00,North,9,1.0,2.0,100,0.00,,,0.00,0.000000,,2013-09-24 06:02:00,
2013-09-24 02:11:00,49.0,49.0,-100.00,NW,311,2.0,2.0,100,0.00,,,0.00,0.000000,,2013-09-24 06:11:00,
2013-09-24 02:42:00,49.0,49.0,-100.00,NW,311,2.0,2.0,100,0.00,,,0.00,0.000000,,2013-09-24 06:42:00,
2013-09-24 02:52:00,49.0,49.0,-100.00,NW,311,2.0,2.0,100,0.00,,,0.00,0.000000,,2013-09-24 06:52:00,
2013-09-24 03:03:00,49.0,49.0,-100.00,NW,311,2.0,2.0,100,0.00,,,0.00,0.000000,,2013-09-24 07:03:00,
2013-09-24 03:11:00,49.0,49.0,-100.00,WNW,288,2.0,3.0,100,0.00,,,0.00,0.000000,,2013-09-24 07:11:00,
2013-09-24 03:43:00,49.0,49.0,-100.00,WNW,288,2.0,3.0,100,0.00,,,0.00,0.000000,,2013-09-24 07:43:00,
2013-09-24 03:52:00,49.0,49.0,-100.00,WNW,288,2.0,3.0,100,0.00,,,0.00,0.000000,,2013-09-24 07:52:00,
2013-09-24 04:02:00,49.0,49.0,-100.00,WNW,288,2.0,3.0,100,0.00,,,0.00,0.000000,,2013-09-24 08:02:00,
2013-09-24 04:11:00,48.0,48.0,-100.00,NE,36,0.0,2.0,100,0.00,,,0.00,0.000000,,2013-09-24 08:11:00,
2013-09-24 04:42:00,48.0,48.0,-100.00,NE,36,0.0,2.0,100,0.00,,,0.00,0.000000,,2013-09-24 08:42:00,
2013-09-24 04:52:00,48.0,48.0,-100.00,NE,36,0.0,2.0,100,0.00,,,0.00,0.000000,,2013-09-24 08:52:00,
2013-09-24 05:02:00,48.0,48.0,-100.00,NE,36,0.0,2.0,100,0.00,,,0.00,0.000000,,2013-09-24 09:02:00,
2013-09-24 05:11:00,47.0,47.0,-100.00,South,169,0.0,0.0,100,0.00,,,0.00,0.000000,,2013-09-24 09:11:00,
2013-09-24 05:43:00,47.0,47.0,-100.00,South,169,0.0,0.0,100,0.00,,,0.00,0.000000,,2013-09-24 09:43:00,
2013-09-24 05:54:00,47.0,47.0,-100.00,South,169,0.0,0.0,100,0.00,,,0.00,0.000000,,2013-09-24 09:54:00,
2013-09-24 06:03:00,47.0,47.0,-100.00,South,169,0.0,0.0,100,0.00,,,0.00,0.000000,,2013-09-24 10:03:00,
2013-09-24 06:11:00,48.0,48.0,-100.00,West,273,2.0,2.0,100,0.00,,,0.00,0.000000,,2013-09-24 10:11:00,
2013-09-24 06:42:00,48.0,48.0,-100.00,West,273,2.0,2.0,100,0.00,,,0.00,0.000000,,2013-09-24 10:42:00,
2013-09-24 06:53:00,48.0,48.0,-100.00,West,273,2.0,2.0,100,0.00,,,0.00,0.000000,,2013-09-24 10:53:00,
2013-09-24 07:03:00,48.0,48.0,-100.00,West,273,2.0,2.0,100,0.00,,,0.00,0.000000,,2013-09-24 11:03:00,
2013-09-24 07:11:00,51.0,51.0,-100.00,ENE,71,1.0,2.0,100,0.00,,,0.00,0.000000,,2013-09-24 11:11:00,
2013-09-24 07:42:00,51.0,51.0,-100.00,ENE,71,1.0,2.0,100,0.00,,,0.00,0.000000,,2013-09-24 11:42:00,
2013-09-24 07:52:00,51.0,51.0,-100.00,ENE,71,1.0,2.0,100,0.00,,,0.00,0.000000,,2013-09-24 11:52:00,
2013-09-24 08:01:00,51.0,51.0,-100.00,ENE,71,1.0,2.0,100,0.00,,,0.00,0.000000,,2013-09-24 12:01:00,
2013-09-24 08:11:00,51.0,51.0,-100.00,SSE,167,1.0,3.0,100,0.00,,,0.00,30.000000,,2013-09-24 12:11:00,
2013-09-24 08:42:00,51.0,51.0,-100.00,SSE,167,1.0,3.0,100,0.00,,,0.00,30.000000,,2013-09-24 12:42:00,
2013-09-24 08:52:00,51.0,51.0,-100.00,SSE,167,1.0,3.0,100,0.00,,,0.00,30.000000,,2013-09-24 12:52:00,
2013-09-24 09:02:00,51.0,51.0,-100.00,SSE,167,1.0,3.0,100,0.00,,,0.00,30.000000,,2013-09-24 13:02:00,
2013-09-24 09:11:00,57.0,57.0,-100.00,West,267,2.0,3.0,100,0.00,,,0.00,165.000000,,2013-09-24 13:11:00,
2013-09-24 09:42:00,57.0,57.0,-100.00,West,267,2.0,3.0,100,0.00,,,0.00,165.000000,,2013-09-24 13:42:00,
2013-09-24 09:52:00,57.0,57.0,-100.00,West,267,2.0,3.0,100,0.00,,,0.00,165.000000,,2013-09-24 13:52:00,
2013-09-24 10:02:00,57.0,57.0,-100.00,West,267,2.0,3.0,100,0.00,,,0.00,165.000000,,2013-09-24 14:02:00,
2013-09-24 10:11:00,66.0,60.0,-100.00,ENE,63,3.0,5.0,82,0.00,,,0.00,459.000000,,2013-09-24 14:11:00,
2013-09-24 10:42:00,66.0,60.0,-100.00,ENE,63,3.0,5.0,82,0.00,,,0.00,459.000000,,2013-09-24 14:42:00,
2013-09-24 10:52:00,66.0,60.0,-100.00,ENE,63,3.0,5.0,82,0.00,,,0.00,459.000000,,2013-09-24 14:52:00,
2013-09-24 11:01:00,66.0,60.0,-100.00,ENE,63,3.0,5.0,82,0.00,,,0.00,459.000000,,2013-09-24 15:01:00,
2013-09-24 11:11:00,71.0,60.0,-100.00,NNE,32,2.0,5.0,69,0.00,,,0.00,616.000000,,2013-09-24 15:11:00,
2013-09-24 11:43:00,71.0,60.0,-100.00,NNE,32,2.0,5.0,69,0.00,,,0.00,616.000000,,2013-09-24 15:43:00,
2013-09-24 11:54:00,71.0,60.0,-100.00,NNE,32,2.0,5.0,69,0.00,,,0.00,616.000000,,2013-09-24 15:54:00,
2013-09-24 12:03:00,71.0,60.0,-100.00,NNE,32,2.0,5.0,69,0.00,,,0.00,616.000000,,2013-09-24 16:03:00,
2013-09-24 12:11:00,75.0,61.0,-100.00,East,96,3.0,6.0,62,0.00,,,0.00,787.000000,,2013-09-24 16:11:00,
2013-09-24 12:43:00,75.0,61.0,-100.00,East,96,3.0,6.0,62,0.00,,,0.00,787.000000,,2013-09-24 16:43:00,
2013-09-24 12:53:00,75.0,61.0,-100.00,East,96,3.0,6.0,62,0.00,,,0.00,787.000000,,2013-09-24 16:53:00,
2013-09-24 13:02:00,75.0,61.0,-100.00,East,96,3.0,6.0,62,0.00,,,0.00,787.000000,,2013-09-24 17:02:00,
2013-09-24 13:11:00,75.0,59.0,-100.00,SSW,197,2.0,5.0,57,0.00,,,0.00,639.000000,,2013-09-24 17:11:00,
2013-09-24 13:43:00,75.0,59.0,-100.00,SSW,197,2.0,5.0,57,0.00,,,0.00,639.000000,,2013-09-24 17:43:00,
2013-09-24 13:54:00,75.0,59.0,-100.00,SSW,197,2.0,5.0,57,0.00,,,0.00,639.000000,,2013-09-24 17:54:00,
2013-09-24 14:03:00,75.0,59.0,-100.00,SSW,197,2.0,5.0,57,0.00,,,0.00,639.000000,,2013-09-24 18:03:00,
2013-09-24 14:11:00,75.0,55.0,-100.00,SSW,198,4.0,6.0,49,0.00,,,0.00,1014.000000,,2013-09-24 18:11:00,
2013-09-24 14:42:00,75.0,55.0,-100.00,SSW,198,4.0,6.0,49,0.00,,,0.00,1014.000000,,2013-09-24 18:42:00,
2013-09-24 14:53:00,75.0,55.0,-100.00,SSW,198,4.0,6.0,49,0.00,,,0.00,1014.000000,,2013-09-24 18:53:00,
2013-09-24 15:02:00,75.0,55.0,-100.00,SSW,198,4.0,6.0,49,0.00,,,0.00,1014.000000,,2013-09-24 19:02:00,
2013-09-24 15:11:00,72.0,55.0,-100.00,WNW,292,2.0,6.0,55,0.00,,,0.00,460.000000,,2013-09-24 19:11:00,
2013-09-24 15:42:00,72.0,55.0,-100.00,WNW,292,2.0,6.0,55,0.00,,,0.00,460.000000,,2013-09-24 19:42:00,
2013-09-24 15:52:00,72.0,55.0,-100.00,WNW,292,2.0,6.0,55,0.00,,,0.00,460.000000,,2013-09-24 19:52:00,
2013-09-24 16:02:00,72.0,55.0,-100.00,WNW,292,2.0,6.0,55,0.00,,,0.00,460.000000,,2013-09-24 20:02:00,
2013-09-24 16:11:00,70.0,53.0,-100.00,WNW,283,2.0,6.0,54,0.00,,,0.00,484.000000,,2013-09-24 20:11:00,
2013-09-24 16:42:00,70.0,53.0,-100.00,WNW,283,2.0,6.0,54,0.00,,,0.00,484.000000,,2013-09-24 20:42:00,
2013-09-24 16:52:00,70.0,53.0,-100.00,WNW,283,2.0,6.0,54,0.00,,,0.00,484.000000,,2013-09-24 20:52:00,
2013-09-24 17:02:00,70.0,53.0,-100.00,WNW,283,2.0,6.0,54,0.00,,,0.00,484.000000,,2013-09-24 21:02:00,
2013-09-24 17:11:00,71.0,54.0,-100.00,West,277,2.0,6.0,54,0.00,,,0.00,412.000000,,2013-09-24 21:11:00,
2013-09-24 17:44:00,71.0,54.0,-100.00,West,277,2.0,6.0,54,0.00,,,0.00,412.000000,,2013-09-24 21:44:00,
2013-09-24 17:54:00,71.0,54.0,-100.00,West,277,2.0,6.0,54,0.00,,,0.00,412.000000,,2013-09-24 21:54:00,
2013-09-24 18:04:00,71.0,54.0,-100.00,West,277,2.0,6.0,54,0.00,,,0.00,412.000000,,2013-09-24 22:04:00,
2013-09-24 18:11:00,67.0,55.0,-100.00,NW,318,2.0,5.0,66,0.00,,,0.00,102.000000,,2013-09-24 22:11:00,
2013-09-24 18:43:00,67.0,55.0,-100.00,NW,318,2.0,5.0,66,0.00,,,0.00,102.000000,,2013-09-24 22:43:00,
2013-09-24 18:54:00,67.0,55.0,-100.00,NW,318,2.0,5.0,66,0.00,,,0.00,102.000000,,2013-09-24 22:54:00,
2013-09-24 19:03:00,67.0,55.0,-100.00,NW,318,2.0,5.0,66,0.00,,,0.00,102.000000,,2013-09-24 23:03:00,
2013-09-24 19:11:00,64.0,55.0,-100.00,NNE,32,1.0,4.0,73,0.00,,,0.00,47.000000,,2013-09-24 23:11:00,
2013-09-24 19:43:00,64.0,55.0,-100.00,NNE,32,1.0,4.0,73,0.00,,,0.00,47.000000,,2013-09-24 23:43:00,
2013-09-24 19:53:00,64.0,55.0,-100.00,NNE,32,1.0,4.0,73,0.00,,,0.00,47.000000,,2013-09-24 23:53:00,
2013-09-24 20:02:00,64.0,55.0,-100.00,NNE,32,1.0,4.0,73,0.00,,,0.00,47.000000,,2013-09-25 00:02:00,
2013-09-24 20:11:00,60.0,58.0,-100.00,ENE,78,1.0,2.0,92,0.00,,,0.00,2.000000,,2013-09-25 00:11:00,
2013-09-24 20:42:00,60.0,58.0,-100.00,ENE,78,1.0,2.0,92,0.00,,,0.00,2.000000,,2013-09-25 00:42:00,
2013-09-24 20:52:00,60.0,58.0,-100.00,ENE,78,1.0,2.0,92,0.00,,,0.00,2.000000,,2013-09-25 00:52:00,
2013-09-24 21:02:00,60.0,58.0,-100.00,ENE,78,1.0,2.0,92,0.00,,,0.00,2.000000,,2013-09-25 01:02:00,
2013-09-24 21:11:00,57.0,56.0,-100.00,NW,322,2.0,2.0,96,0.00,,,0.00,0.000000,,2013-09-25 01:11:00,
2013-09-24 21:42:00,57.0,56.0,-100.00,NW,322,2.0,2.0,96,0.00,,,0.00,0.000000,,2013-09-25 01:42:00,
2013-09-24 21:52:00,57.0,56.0,-100.00,NW,322,2.0,2.0,96,0.00,,,0.00,0.000000,,2013-09-25 01:52:00,
2013-09-24 22:02:00,57.0,56.0,-100.00,NW,322,2.0,2.0,96,0.00,,,0.00,0.000000,,2013-09-25 02:02:00,
2013-09-24 22:11:00,56.0,55.0,-100.00,South,187,1.0,3.0,98,0.00,,,0.00,0.000000,,2013-09-25 02:11:00,
2013-09-24 22:42:00,56.0,55.0,-100.00,South,187,1.0,3.0,98,0.00,,,0.00,0.000000,,2013-09-25 02:42:00,
2013-09-24 22:52:00,56.0,55.0,-100.00,South,187,1.0,3.0,98,0.00,,,0.00,0.000000,,2013-09-25 02:52:00,
2013-09-24 23:02:00,56.0,55.0,-100.00,South,187,1.0,3.0,98,0.00,,,0.00,0.000000,,2013-09-25 03:02:00,
2013-09-24 23:11:00,55.0,55.0,-100.00,NNW,346,1.0,3.0,99,0.00,,,0.00,0.000000,,2013-09-25 03:11:00,
2013-09-24 23:45:00,55.0,55.0,-100.00,NNW,346,1.0,3.0,99,0.00,,,0.00,0.000000,,2013-09-25 03:45:00,
2013-09-24 23:55:00,55.0,55.0,-100.00,NNW,346,1.0,3.0,99,0.00,,,0.00,0.000000,,2013-09-25 03:55:00,